NOAA 16 DEB

Satellite information

Favourite Embed

Satellite Type and Status

DEBRISIN ORBIT

Key statistics

Satellite NOAA 16 DEB at a glance.

Uptime

9115

Days in orbit

Revolutions

≈ 14.5

Per day

Orbit

SSO

Sun Synchronous Orbit

Inclination

98.9

Latest

Satellite identification and parameters

Extended collection of information and parameters for NOAA 16 DEB.

Object identification

Identified? True

Debris? True

Object name: NOAA 16 DEB

International designator: 2000-055QY

Object number (NORAD): 42356

Object ID (CCSDS): 42356

Country: UNITED STATES OF AMERICA (US)

Current information (Y/N): Y

RCS size: SMALL

Orbital parameters

Period: 99.265 minutes

Inclination: 98.9096 deg

SMA: 7101.612 km

Apoapsis: 739.532 km

Periapsis: 707.422 km

RAAN: 36.736 deg

Eccentricy: 0.00226071

Argument of periapsis: 353.6819 deg

Mean anomaly: 6.4085 deg

Mean motion: 14.50665738 rev/day

Mean motion (dot): 0.00018908 rev/day2

B* drag term: 0.0047983399 1/REarth

Two-line elements (TLE)

Creation date: Sept. 2, 2025, 3:25 a.m.

Reference frame: TEME

Reference center: EARTH

Epoch: Sept. 1, 2025, 3:17 p.m. UTC

TLE line 0: 0 NOAA 16 DEB

TLE line 1: 1 42356U 00055QY 25244.63710869 .00018908 00000-0 47983-2 0 9996

TLE line 2: 2 42356 98.9096 36.7360 0022607 353.6819 6.4085 14.50665738495635

Live tracking on map

Real-time ground track for satellite NOAA 16 DEB.

In-orbit conjunctions

A list of the most updated potential collisions computed for object NOAA 16 DEB.

Target Orbit TCA Probability of collision Miss distance Type
CZ-6A DEB LEO 2025-02-18 07:37:15 0.0003159632 230.0 (m) DEBRIS
THORAD AGENA D DEB SSO 2024-09-27 13:44:56 0.0006544798 129.0 (m) DEBRIS

Associated space launch

The NOAA K, L and M POES satellites begin the fifth generation of improved environmental monitoring in support of NOAA missions. The instrument payload has significant improvements and additions/deletions. The instrument changes have effected the spacecraft subsystems and data formats.

NOAA 16 DEB was lifted into orbit during the mission ‘Titan II SLV | NOAA 16’, on board a Titan II SLV space rocket.

The launch took place on Sept. 21, 2000, 10:22 a.m. from Space Launch Complex 4W.

For more information about the launch, click the button.

Launch to space Titan II SLV | NOAA 16
Titan II SLV | NOAA 16

Agency: N/A

Status: Launch Successful

Launch date: Sept. 21, 2000, 10:22 a.m. UTC

Rocket: Titan II SLV

Launch pad: Space Launch Complex 4W

Location: Vandenberg SFB, CA, USA

...

Latest news about this satellite

There are no fresh news available about this satellite. Check back as we update our databases every day.


Newsletter sign-up

Weekly statistics, charts and insights to help you stay on top of the space industry.